Other Public Products
Issued by NWS Grand Forks, ND

Home | Current Version | Previous Version | Graphics & Text | Print | Product List | Glossary On
Versions: 1 2 3 4 5 6 7 8 9 10 11 12 13 14 15 16 17 18 19 20 21 22 23 24 25 26 27 28 29 30 31 32 33 34 35 36 37 38 39 40 41 42 43 44 45 46 47 48 49 50
000
FPUS83 KFGF 240031
OPUFGF
PRAIRIE TO PINES WEATHER ROUNDUP
NATIONAL WEATHER SERVICE EASTERN NORTH DAKOTA/GRAND FORKS ND
700 PM CDT MON APR 23 2018

 **SATELLITE DATA USED TO AUGMENT SKY COVER AT AUTOMATED STATIONS**
 *****  WEATHER ACROSS EASTERN NORTH DAKOTA  *****

CITY           SKY/WX    TMP DP  RH WIND       PRES   REMARKS
GRAND FORKS    PTSUNNY   57  37  47 NE7       30.16S
6HR MIN TEMP:  57; 6HR MAX TEMP:  63;

GRND FORKS AFB NOT AVBL
GRND FORKS NWS   N/A     58  37  44 N3        30.14S
BUXTON           N/A     43  43 100 NE5         N/A
DEVILS LAKE    FAIR      56  35  45 N14       30.20R
6HR MIN TEMP:  55; 6HR MAX TEMP:  59;

FARGO          FAIR      63  40  42 N12       30.14S
6HR MIN TEMP:  61; 6HR MAX TEMP:  67;

WAHPETON ARPT  FAIR      63  45  51 N10G16    30.12S
$$

 *****  WEATHER ACROSS CENTRAL AND WESTERN NORTH DAKOTA  *****

CITY           SKY/WX    TMP DP  RH WIND       PRES   REMARKS
JAMESTOWN      CLOUDY    59  37  44 NE12      30.15S
6HR MIN TEMP:  59; 6HR MAX TEMP:  66;

BISMARCK       CLOUDY    58  32  37 N16G22    30.17R
6HR MIN TEMP:  58; 6HR MAX TEMP:  66;

MINOT          CLOUDY    53  34  48 NW13      30.24S
6HR MIN TEMP:  52; 6HR MAX TEMP:  56; 6HR PCP: TRACE;

MINOT AFB      NOT AVBL
GARRISON         N/A     49  36  61 N13       30.24R
6HR MIN TEMP:  49; 6HR MAX TEMP:  56;

WILLISTON      CLOUDY    51  19  28 N20       30.32R
6HR MIN TEMP:  48; 6HR MAX TEMP:  52;

DICKINSON      CLOUDY    45  32  60 N22G33    30.21R
6HR MIN TEMP:  45; 6HR MAX TEMP:  53;

HETTINGER      CLOUDY    50  32  50 N31G38    30.13R
6HR MIN TEMP:  50; 6HR MAX TEMP:  65;

$$

 *****  OTHER OBSERVATIONS NORTHEAST NORTH DAKOTA  *****

CITY           SKY/WX    TMP DP  RH WIND       PRES   REMARKS
WALHALLA       FAIR      57  36  44 NW15      30.18R
LANGDON        FAIR      54  37  54 NW13      30.20R
CAVALIER         N/A     59  36  41 N9        30.17R
GRAFTON        FAIR      59  36  41 N10       30.18S
CANDO          MOCLDY    54  36  50 N12       30.23S
FORT TOTTEN      N/A     55  32  41 N3        29.95S
ROLLA          CLOUDY    50  36  57 NW13      30.23R
RUGBY          FAIR      54  36  50 N10       30.22S
 ***** THE ABOVE OBSERVATIONS ARE NON NWS ARE NOT QUALITY
        CONTROLLED AND MAY MIS-REPORT RAIN FOR SNOW...
$$

 *****  OTHER OBSERVATIONS SOUTHEAST NORTH DAKOTA *****

CITY           SKY/WX    TMP DP  RH WIND       PRES   REMARKS
COOPERSTOWN    FAIR      57  39  51 N10       30.18R
VALLEY CITY    MOCLDY    59  43  55 NE6       30.17S
OAKES            N/A     59  46  63 NE14      30.13R
GWINNER          N/A     59  48  67 N12       30.12S
SHEYENNE NWR     N/A     63  42  46 NE9       29.95S
BUFFALO          N/A     60  37  42 W7          N/A
WYNDMERE       NOT AVBL
 ***** THE ABOVE OBSERVATIONS ARE NON NWS ARE NOT QUALITY
       CONTROLLED AND MAY MIS-REPORT RAIN FOR SNOW...
$$

  *****  WEATHER ACROSS NORTHERN MINNESOTA  *****

CITY           SKY/WX    TMP DP  RH WIND       PRES   REMARKS
FLAG ISLAND    FAIR      50  28  43 NW5       30.12R
WARROAD        FAIR      57  32  38 NW8       30.14S
ROSEAU         FAIR      57  36  44 W6        30.14S
HALLOCK        FAIR      61  30  31 N8        30.16S
THF RVR FALLS  FAIR      59  33  37 NW13      30.16S
6HR MIN TEMP:  58; 6HR MAX TEMP:  61;

HALSTAD        NOT AVBL
FOSSTON        FAIR      57  36  44 NW8       30.16S
BAUDETTE       FAIR      58  29  33 NW12      30.12F
6HR MIN TEMP:  58; 6HR MAX TEMP:  61;

WASKISH        FAIR      50  34  53 W6        30.12F
CROOKSTON      FAIR      57  43  58 N8        30.18R
$$
  *****  WEATHER ACROSS CENTRAL AND WEST MINNESOTA  *****

CITY           SKY/WX    TMP DP  RH WIND       PRES   REMARKS
BEMIDJI        FAIR      61  31  31 NW10      30.12F
6HR MIN TEMP:  62; 6HR MAX TEMP:  67;

PARK RAPIDS    FAIR      67  33  28 NW9       30.11S
6HR MIN TEMP:  65; 6HR MAX TEMP:  70;

WADENA         FAIR      64  41  42 NW5       30.11F
DETROIT LAKES  FAIR      61  36  39 N5        30.14S
MOORHEAD       FAIR      63  39  42 N14       30.15S
FERGUS FALLS   FAIR      63  43  48 NW5       30.08S
ELBOW LAKE     FAIR      63  41  44 CALM      30.12F
MORRIS MN      FAIR      64  46  52 CALM      30.11S
STAPLES        FAIR      64  37  36 W3        30.11S
WHEATON        PTSUNNY   66  37  34 N7        30.13S
$$
  *****  WEATHER ELSEWHERE ACROSS MINNESOTA  *****

CITY           SKY/WX    TMP DP  RH WIND       PRES   REMARKS
DULUTH         PTSUNNY   63  39  41 W9        30.10S
6HR MIN TEMP:  63; 6HR MAX TEMP:  68;

INTRNTL FALLS  FAIR      60  32  34 NW14      30.11S
6HR MIN TEMP:  60; 6HR MAX TEMP:  65;

ELY            FAIR      63  28  27 N5        30.09R
CLOQUET        CLOUDY    64  30  27 CALM      30.11S
BRAINERD       PTSUNNY   68  35  29 NW5       30.11S
6HR MIN TEMP:  65; 6HR MAX TEMP:  70;

HIBBING        FAIR      62  31  31 NW12      30.09F
6HR MIN TEMP:  62; 6HR MAX TEMP:  67;

ALEXANDRIA     FAIR      65  36  34 NW3       30.13S
6HR MIN TEMP:  65; 6HR MAX TEMP:  71;

SAINT CLOUD    FAIR      67  37  33 N5        30.11F
6HR MIN TEMP:  64; 6HR MAX TEMP:  70;

MINNEAPOLIS    FAIR      69  37  30 CALM      30.12S
6HR MIN TEMP:  65; 6HR MAX TEMP:  71;

$$

  *****  WEATHER ACROSS SOUTH DAKOTA  *****

CITY           SKY/WX    TMP DP  RH WIND       PRES   REMARKS
SIOUX FALLS    FAIR      66  37  34 E9        30.10S
6HR MIN TEMP:  66; 6HR MAX TEMP:  70;

BROOKINGS      PTSUNNY   63  41  44 SE14      30.12S
WATERTOWN      CLOUDY    65  37  35 NE7       30.10S
6HR MIN TEMP:  63; 6HR MAX TEMP:  67;

HURON          CLOUDY    66  40  38 SE7       30.07F
6HR MIN TEMP:  65; 6HR MAX TEMP:  70;

SISSETON         N/A     66  43  43 E8        30.09S
ABERDEEN       FAIR      65  41  41 SE6       30.08F
6HR MIN TEMP:  65; 6HR MAX TEMP:  74;

MITCHELL       PTSUNNY   68  42  38 SE8       30.08S
PIERRE         FAIR      68  39  34 SE14      30.02S
6HR MIN TEMP:  66; 6HR MAX TEMP:  71;

MOBRIDGE       CLOUDY    68  41  37 SE10      30.04R
RAPID CITY     RAIN      50  44  80 W23G38    30.06R
6HR MIN TEMP:  50; 6HR MAX TEMP:  66; 6HR PCP:  0.05;

$$

  *****  SOME WEATHER IN NEARBY STATES *****

CITY           SKY/WX    TMP DP  RH WIND       PRES   REMARKS
GLASGOW MT     FAIR      54  22  28 N13       30.35S
6HR MIN TEMP:  48; 6HR MAX TEMP:  54;

GREAT FALLS MT FAIR      49  21  33 E6        30.42R
6HR MIN TEMP:  45; 6HR MAX TEMP:  51;

CHEYENNE WY    LGT RAIN  53  44  71 N25G37    30.10R
6HR MIN TEMP:  54; 6HR MAX TEMP:  67; 6HR PCP:  0.04;

SCOTTSBLUFF NE RAIN      53  49  86 NW43G59   30.05R SQUALL  FOG
6HR MIN TEMP:  64; 6HR MAX TEMP:  71; 6HR PCP: TRACE;

OMAHA NE       FAIR      73  28  18 E3        30.05F
6HR MIN TEMP:  70; 6HR MAX TEMP:  77;

DES MOINES IA  FAIR      71  27  19 NE12      30.06S
6HR MIN TEMP:  68; 6HR MAX TEMP:  74;

DAVENPORT IA   FAIR      68  30  24 NE14      30.07S
6HR MIN TEMP:  66; 6HR MAX TEMP:  72;

CHICAGO IL     CLOUDY    55  23  28 NE13      30.10S
6HR MIN TEMP:  55; 6HR MAX TEMP:  63;

EAU CLAIRE WI  FAIR      67  28  23 CALM      30.11F
6HR MIN TEMP:  63; 6HR MAX TEMP:  70;

LA CROSSE WI   FAIR      70  28  21 SW3       30.09F
6HR MIN TEMP:  64; 6HR MAX TEMP:  71;

$$

  *****  SOME NATIONAL WEATHER *****

CITY           SKY/WX    TMP DP  RH WIND       PRES   REMARKS
LA GUARDIA NY  MOCLDY    54  33  45 S7        30.43R
6HR MIN TEMP:  54; 6HR MAX TEMP:  65;



USA.gov is the U.S. government's official web portal to all federal, state and local government web resources and services.